LENINGRAD/PULKOVO current weather conditions

sailwx.info

Wind from 330 at 9 knots

Air temperature 8.0° C
Visibility: greater than 5.4 NM
Dewpoint 6.0° C
Present weather: Light rain showers.

Last reported at 2018-Apr-25 13:00 UTC.
Time now 2018-Apr-25 14:44 UTC

Location: N 59°48' E 030°16'.
View on Google Maps.

See reports from other nearby stations

  
Tides and Currents Weather Stations Pressure Air Temp Water Temp Dewpoint Dewpoint Depression Visibility Wind Speed Wind Dir Waves Ship Positions
date/time (UTC)wind fromknots sea level pressurealtimeterstation pressurevisibilityair tempwater tempwave heightnotes
2018-Apr-25 14:00 350 5 2.4 8.0 Light rain showers.
2018-Apr-25 13:30 310 5 3.2 8.0 Light rain showers.
2018-Apr-25 13:00 330 9 5.4 8.0 Light rain showers.
2018-Apr-25 12:30 260 7 4.3 9.0 Light rain showers.
2018-Apr-25 12:00 260 9 5.4 9.0 Light rain showers.
2018-Apr-25 11:30 230 5 5.4 9.0 Light rain showers.
2018-Apr-25 11:00 230 11 4.3 7.0 Light rain showers.
2018-Apr-25 10:30 200 11 5.411.0
2018-Apr-25 10:00 200 7 5.412.0
2018-Apr-25 09:30 210 9 5.410.0
2018-Apr-25 09:00 210 7 5.410.0
2018-Apr-25 08:30 220 7 5.4 9.0
2018-Apr-25 08:00 210 9 5.4 9.0
2018-Apr-25 07:30 190 7 5.4 8.0
2018-Apr-25 07:00 180 7 5.4 8.0
2018-Apr-25 06:30 160 5 5.4 7.0
2018-Apr-25 06:00 160 5 5.4 7.0 Light rain showers.
2018-Apr-25 05:30 140 5 5.4 7.0 Light rain showers.
2018-Apr-25 05:00 150 3 4.9 6.0 Light rain showers.
2018-Apr-25 04:30 140 3 5.4 6.0
2018-Apr-25 04:00 140 3 5.4 6.0 Light rain showers.
2018-Apr-25 03:30 140 3 5.4 6.0 Light rain showers.
2018-Apr-25 03:00 150 1 5.4 5.0 Light rain showers.
2018-Apr-25 02:30 180 3 5.4 5.0
2018-Apr-25 02:00 5.4 5.0
2018-Apr-25 01:30 160 1 5.4 5.0 Light rain showers.
2018-Apr-25 01:00 5.4 6.0 Light rain showers.
2018-Apr-25 00:30 220 3 5.4 7.0 Light rain showers.
2018-Apr-25 00:00 210 3 5.4 6.0
2018-Apr-24 23:30 200 3 5.4 6.0
2018-Apr-24 23:00 200 3 5.4 7.0
2018-Apr-24 22:30 220 5 5.4 7.0
2018-Apr-24 22:00 200 3 5.4 7.0
2018-Apr-24 21:30 190 5 5.4 6.0
2018-Apr-24 21:00 170 3 5.4 6.0
2018-Apr-24 20:30 160 3 5.4 6.0
2018-Apr-24 20:00 5.4 6.0
2018-Apr-24 19:30 130 3 5.4 6.0
2018-Apr-24 19:00 140 3 5.4 6.0
2018-Apr-24 18:30 5.4 7.0
2018-Apr-24 18:00 120 3 5.4 6.0
2018-Apr-24 17:30 130 3 5.4 7.0
2018-Apr-24 17:00 130 5 5.4 7.0
2018-Apr-24 16:30 160 5 5.4 7.0
2018-Apr-24 16:00 150 3 5.4 8.0
2018-Apr-24 15:30 200 5 5.4 7.0
2018-Apr-24 15:00 180 5 5.4 7.0
2018-Apr-24 14:30 170 7 5.4 7.0
2018-Apr-24 14:00 160 7 5.4 6.0
2018-Apr-24 13:30 180 7 5.4 6.0
2018-Apr-24 13:00 180 7 5.4 6.0
2018-Apr-24 12:30 160 11 5.4 7.0
2018-Apr-24 12:00 150 11 5.4 7.0 Light rain showers.
2018-Apr-24 11:30 140 9 5.4 7.0 Light rain showers.
2018-Apr-24 11:00 150 11 5.4 7.0 Light rain showers.
2018-Apr-24 10:30 130 11 5.4 8.0
2018-Apr-24 10:00 130 11 5.4 8.0 Light rain showers.
2018-Apr-24 09:30 130 11 5.4 8.0
2018-Apr-24 09:00 130 11 5.4 8.0
2018-Apr-24 08:30 140 11 5.4 7.0
2018-Apr-24 08:00 130 11 5.4 7.0
2018-Apr-24 07:30 120 11 5.4 7.0
2018-Apr-24 07:00 120 11 5.4 6.0
2018-Apr-24 06:30 130 9 5.4 5.0
2018-Apr-24 06:00 120 9 5.4 5.0
2018-Apr-24 05:30 120 9 5.4 4.0
2018-Apr-24 05:00 140 7 5.4 2.0
2018-Apr-24 04:30 130 5 5.4 2.0
2018-Apr-24 04:00 140 5 5.4 2.0
2018-Apr-24 03:30 150 5 5.4 1.0
2018-Apr-24 03:00 140 5 5.4-1.0
2018-Apr-24 02:30 100 5 5.4-1.0
2018-Apr-24 02:00 090 5 5.4-1.0
2018-Apr-24 01:30 110 3 5.4-2.0
2018-Apr-24 01:00 100 3 5.4-2.0
2018-Apr-24 00:30 100 7 5.4-1.0
2018-Apr-24 00:00 100 5 5.4-2.0
2018-Apr-23 23:30 100 7 5.4-1.0
2018-Apr-23 23:00 100 5 5.4-1.0
2018-Apr-23 22:30 100 7 5.4-1.0
2018-Apr-23 22:00 110 7 5.4-0.0
2018-Apr-23 21:30 120 7 5.4-1.0
2018-Apr-23 21:00 120 5 5.4-0.0
2018-Apr-23 20:30 120 3 5.4 1.0
2018-Apr-23 20:00 110 5 5.4 1.0
2018-Apr-23 19:30 110 5 5.4 1.0
2018-Apr-23 19:00 100 7 5.4 1.0
2018-Apr-23 18:30 110 7 5.4 2.0
2018-Apr-23 18:00 110 7 5.4 3.0
2018-Apr-23 17:30 100 9 5.4 4.0
2018-Apr-23 17:00 100 9 5.4 5.0
2018-Apr-23 16:30 100 5 5.4 6.0
2018-Apr-23 16:00 5.4 8.0
2018-Apr-23 15:30 360 3 5.4 8.0
2018-Apr-23 15:00 360 5 5.4 8.0
2018-Apr-23 14:30 320 5 5.4 8.0
2018-Apr-23 14:00 320 5 5.4 8.0